User: anonymous   Login
Location: Unspecified
(0.0000°N, 0.0000°E)
Time: 07:03:51
(UTC+00:00)
Language:

Picosat 5 - Orbit

View from above orbital plane
View from above orbital plane
View from above satellite
View from above satellite

Ground track
Ground track

The orbit data is extracted from the following two-line orbital elements,

1 26093U 00004L   18048.37173392 +.00000326 +00000-0 +97453-4 0  9993
2 26093 100.2052 211.5250 0030756 059.1282 301.2925 14.51322581950396
Epoch (UTC): 17 February 2018 08:55:17
Eccentricity: 0.0030756
inclination: 100.2052°
perigee height: 699 km
apogee height: 743 km
right ascension of ascending node: 211.5250°
argument of perigee: 59.1282°
revolutions per day: 14.51322581
mean anomaly at epoch: 301.2925°
orbit number at epoch: 95039

The dashed part of the orbit path shows where the satellite is in the earth's shadow,  

DLR